Regional Weather Roundup
Issued by NWS Little Rock, AR

Home | Current Version | Previous Version | Graphics & Text | Print | Product List | Glossary On
Versions: 1 2 3 4 5 6 7 8 9 10 11 12 13 14 15 16 17 18 19 20 21 22 23 24 25 26 27 28 29 30 31 32 33 34 35 36 37 38 39 40 41 42 43 44 45 46 47 48 49 50
446
ASUS44 KLZK 211905
RWRLZK

WEATHER ROUNDUP FOR ARKANSAS
NATIONAL WEATHER SERVICE LITTLE ROCK AR
200 PM CDT MON AUG 21 2017

NOTE: "FAIR" INDICATES FEW OR NO CLOUDS BELOW 12,000 FEET WITH NO
SIGNIFICANT WEATHER AND/OR OBSTRUCTIONS TO VISIBILITY.

ARZ001-003-010-029-212000-
NORTHWEST ARKANSAS

CITY           SKY/WX    TMP DP  RH WIND       PRES   REMARKS
FAYETTEVILLE   SUNNY     84  76  76 S10       30.12S HX  93
FORT SMITH     SUNNY     89  75  63 VRB3      30.07F HX  99
HARRISON       SUNNY     85  71  63 S7        30.13F HX  90
BENTONVILLE    SUNNY     84  72  65 SW8       30.12F HX  89
ROGERS         SUNNY     86  74  67 S6        30.13S HX  94
HIGHFILL       SUNNY     84  75  74 SW7       30.12S HX  92
SPRINGDALE     SUNNY     86  73  66 SW9       30.13F HX  93
$$

ARZ004-005-016-212000-
NORTH CENTRAL ARKANSAS

CITY           SKY/WX    TMP DP  RH WIND       PRES   REMARKS
FLIPPIN        SUNNY     88  72  58 CALM      30.08F HX  94
MTN HOME       SUNNY     86  75  69 S3        30.10F HX  95
$$

ARZ040-041-212000-
WEST CENTRAL ARKANSAS

CITY           SKY/WX    TMP DP  RH WIND       PRES   REMARKS
MENA           SUNNY     88  81  79 CALM      30.13S HX 105
MOUNT IDA      SUNNY     86  72  62 S3        30.10F HX  92
$$

ARZ009-017-025-026-028-212000-
NORTHEAST ARKANSAS

CITY           SKY/WX    TMP DP  RH WIND       PRES   REMARKS
CORNING        FAIR      88  82  84 SW5       30.09F HX 108
JONESBORO      SUNNY     88  79  74 SW8       30.09F HX 103
NEWPORT        SUNNY     88  78  72 S6        30.10F HX 101
WALNUT RIDGE   SUNNY     88  77  70 S6        30.09F HX 100
BLYTHEVILLE    SUNNY     88  79  74 S7        30.10F HX 103
$$

ARZ022-023-033-042-044-212000-
CENTRAL ARKANSAS

CITY           SKY/WX    TMP DP  RH WIND       PRES   REMARKS
LITTLE ROCK    MOSUNNY   87  77  72 S6        30.10F HX  99
JACKSONVILLE   SUNNY     88  77  69 SE6       30.10S HX  99
CONWAY           N/A     88  79  74 S5        30.07F HX 102
SEARCY         SUNNY     88  79  74 S5        30.11F HX 103
HOT SPRINGS    MOSUNNY   88  75  65 SW6       30.11S HX  97
RUSSELLVILLE   SUNNY     87  77  72 CALM      30.08F HX  99
CLINTON        FAIR      84  77  79 CALM      30.10S HX  94
$$

ARZ036-212000-
EAST ARKANSAS

CITY           SKY/WX    TMP DP  RH WIND       PRES   REMARKS
WEST MEMPHIS   SUNNY     89  78  70 CALM      30.09F HX 103
$$

ARZ050-053-066-070-073-212000-
SOUTHWEST ARKANSAS

CITY           SKY/WX    TMP DP  RH WIND       PRES   REMARKS
ARKADELPHIA    FAIR      88  77  69 SW3       30.10F HX 100
CAMDEN         SUNNY     90  73  58 CALM      30.09S HX  98
TEXARKANA      SUNNY     86  77  74 S3        30.10F HX  97
EL DORADO      SUNNY     89  73  59 CALM      30.10F HX  97
DE QUEEN       SUNNY     87  78  74 SE3       30.08S HX 100
$$

ARZ056-057-069-212000-
SOUTHEAST ARKANSAS

CITY           SKY/WX    TMP DP  RH WIND       PRES   REMARKS
PINE BLUFF     SUNNY     88  75  65 SW5       30.10F HX  97
MONTICELLO     SUNNY     89  77  67 CALM      30.10F HX 101

$$






USA.gov is the U.S. government's official web portal to all federal, state and local government web resources and services.